Regional Weather Roundup
Issued by NWS Sioux Falls, SD

Home | Current Version | Previous Version | Text Only | Print | Product List | Glossary Off
Versions: 1 2 3 4 5 6 7 8 9 10 11 12 13 14 15 16 17 18 19 20 21 22 23 24 25 26 27 28 29 30 31 32 33 34 35 36 37 38 39 40 41 42 43 44 45 46 47 48 49 50

154
ASUS43 KFSD 041102
RWRFSD

WEATHER ROUNDUP FOR SE SOUTH DAKOTA/SW MINNESOTA/NW IOWA
NATIONAL WEATHER SERVICE SIOUX FALLS SD
500 AM CST SUN DEC 04 2016

NOTE: "FAIR" INDICATES FEW OR NO CLOUDS BELOW 12,000 FEET WITH NO
SIGNIFICANT WEATHER AND OR OBSTRUCTIONS TO VISIBILITY.


SDZ038>040-050-052>070-041200-
SOUTHEAST SOUTH DAKOTA

CITY           SKY/WX    TMP DP  RH WIND       PRES   REMARKS
CHAMBERLAIN    CLEAR     30  26  85 W9        29.88S WCI  21
HURON          MOCLDY    29  26  89 SW8       29.85F WCI  21
MADISON        CLOUDY    32  32 100 SW13      29.86S WCI  22
MITCHELL       CLOUDY    31  26  82 SW7       29.89F WCI  24
SIOUX FALLS    CLOUDY    33  33 100 S9        29.88F WCI  25
WINNER         FAIR      33  25  72 W8        29.89F WCI  26
YANKTON        CLEAR     30  28  93 S3        29.90F
$$

MNZ071-072-080-081-089-090-097-098-041200-
SOUTHWEST MINNESOTA

CITY           SKY/WX    TMP DP  RH WIND       PRES   REMARKS
FAIRMONT       CLOUDY    33  32  96 S13       29.95F FOG     WCI  24
JACKSON        CLOUDY    32  32 100 S10       29.93F FOG     WCI  24
LUVERNE        CLOUDY    32  32 100 S10       29.90F FOG     WCI  24
MARSHALL       CLOUDY    34  32  92 S13       29.88F WCI  25
MONTEVIDEO     CLOUDY    34  34 100 SW7       29.90F WCI  28
PIPESTONE      CLOUDY    34  34 100 SW10      29.87F FOG     WCI  26
REDWOOD FALLS  CLOUDY    35  33  92 S9        29.92F WCI  28
TRACY          CLOUDY    35  33  94 SW10      29.90F WCI  27
WINDOM         CLOUDY    34  34 100 CALM      29.91F FOG
WORTHINGTON    CLOUDY    33  32  96 SW13      29.91F FOG     WCI  24
$$

IAZ001>003-012>014-020>022-031-032-NEZ013-014-SDZ071-041200-
NORTHWEST IOWA

CITY           SKY/WX    TMP DP  RH WIND       PRES   REMARKS
CHEROKEE       CLOUDY    33  33 100 SW7       29.95F FOG     WCI  27
DENISON        CLOUDY    34  34 100 SW8       29.95F FOG     WCI  27
ESTHERVILLE    CLOUDY    32  32 100 S12       29.94F FOG     WCI  23
LE MARS        CLOUDY    34  32  93 S8        29.95F WCI  27
ORANGE CITY    CLOUDY    34  34 100 S3        29.92F FOG
SHELDON        CLOUDY    34  34 100 SW7       29.91F WCI  28
SIOUX CITY     CLOUDY    35  33  92 S7        29.95F WCI  29
SPENCER        CLOUDY    33  33 100 SW14      29.94F FOG     WCI  23
STORM LAKE     FOG       32  32 100 SW10      29.94F VSB 1/4 WCI  24
$$

ABBREVIATIONS USED IN REMARKS
   TC - TEMPERATURE IN CELSIUS
  WCI - WIND CHILL INDEX
   HX - HEAT INDEX
  VSB - VISIBILITY





USA.gov is the U.S. government's official web portal to all federal, state and local government web resources and services.